Tracking 19796 objects as of 19-Jul-2019
HD Live streaming from Space Station
objects crossing your sky now

FENGYUN 1C DEB

Track FENGYUN 1C DEB now!
10-day predictions


NORAD ID: 31929
Int'l Code: 1999-025CME
Perigee: 744.9 km
Apogee: 863.4 km
Inclination: 98.7 °
Period: 100.8 minutes
Semi major axis: 7175 km
RCS: 0.0033 m2 (small)
Launch date: May 10, 1999
Source: People's Republic of China (PRC)
Launch site: Taiyaun Space Center, China (TSC)

Note: This is SATELLITE DEBRIS
aabbcc
Your satellite tracking list
Your tracking list is empty




NASA's NSSDC Master Catalog

Two Line Element Set (TLE):
1 31929U 99025CME 19196.06412553 +.00000076 +00000-0 +46094-4 0  9991
2 31929 098.6815 290.6009 0082594 078.6672 282.3775 14.28417164371589
Source of the keplerian elements: AFSPC